This demonstration page uses our WeatherBlox Daily Observations layout. Learn more.

Hourly Observations for October 28, 2020

Temp ( °F °C ) Dew Point ( °F °C ) Humidity (%) Winds ( mph kmh ) Pressure ( in mb ) Visibility ( mi km ) Precip ( " mm )
12:54 am 00:54 Clear 27 -2.8 19 -7.2 72 72 SSW 5 7 30.16 1022 10 16.0934 0 0
1:54 am 01:54 Clear 26 -3.3 18 -7.8 71 71 S 6 9 30.16 1021 10 16.0934 0 0
2:54 am 02:54 Clear 26 -3.3 19 -7.2 75 75 SSW 6 9 30.13 1020 10 16.0934 0 0
3:54 am 03:54 Clear 23 -5 17 -8.3 78 78 Calm 30.12 1020 10 16.0934 0 0
4:54 am 04:54 Clear 21 -6.1 16 -8.9 81 81 S 8 13 30.1 1019 10 16.0934 0 0
5:54 am 05:54 Clear 24 -4.4 17 -8.3 75 75 Calm 30.1 1019 10 16.0934 0 0
6:54 am 06:54 Clear 23 -5 16 -8.9 74 74 S 5 7 30.11 1020 10 16.0934 0 0
7:54 am 07:54 Sunny 26 -3.3 17 -8.3 69 69 WSW 5 7 30.1 1019 10 16.0934 0 0
8:54 am 08:54 Sunny 27 -2.8 20 -6.7 75 75 Calm 30.09 1019 10 16.0934 0 0
9:54 am 09:54 Sunny 32 0 21 -6.1 64 64 SSW 5 7 30.07 1018 10 16.0934 0 0
10:54 am 10:54 Sunny 39 3.9 24 -4.4 55 55 SSW 8 13 30.08 1019 10 16.0934 0 0
11:54 am 11:54 Sunny 45 7.2 25 -3.9 46 46 SSW 8 13 30.05 1018 10 16.0934 0 0
12:54 pm 12:54 Sunny 53 11.7 24 -4.4 32 32 SSW 13 20 30.02 1017 10 16.0934 0 0
1:54 pm 13:54 Sunny 55 12.8 22 -5.6 28 28 WSW 8 13 30 1016 10 16.0934 0 0
2:54 pm 14:54 Sunny 55 12.8 22 -5.6 28 28 S 5 7 29.99 1016 10 16.0934 0 0
3:54 pm 15:54 Sunny 59 15 25 -3.9 27 27 N 5 7 29.99 1016 10 16.0934 0 0
4:54 pm 16:54 Sunny 59 15 26 -3.3 28 28 N 6 9 29.95 1014 10 16.0934 0 0
5:54 pm 17:54 Sunny 56 13.3 27 -2.8 33 33 VRB 3 6 29.96 1015 10 16.0934 0 0
6:54 pm 18:54 Clear 47 8.3 27 -2.8 46 46 Calm 30.01 1016 10 16.0934 0 0
7:54 pm 19:54 Clear 50 10 31 -0.6 48 48 NNE 12 19 30.04 1017 10 16.0934 0 0
8:54 pm 20:54 Clear 47 8.3 32 0 56 56 N 12 19 30.05 1018 10 16.0934 0 0
9:54 pm 21:54 Clear 47 8.3 35 1.7 63 63 N 16 26 30.02 1017 10 16.0934 0 0
10:54 pm 22:54 Clear 46 7.8 35 1.7 66 66 N 18 30 30.06 1018 10 16.0934 0 0
11:54 pm 23:54 Clear 44 6.7 35 1.7 71 71 N 20 31 30.06 1018 10 16.0934 0 0

Powered by AerisWeather